KE6JPV Weather Reports


Display with metric or nautical units.
time (UTC)temp
F
wind
direction
speed
MPH
gust
MPH
rain 1hr
in
rain 24hr
in
rain mn
in
humidity
%
barometer
mb
20200707084548 67 180 0.0 0.0 0.00 0.00 0.00 66 1009.9
20200707083547 67 202 0.0 0.0 0.00 0.00 0.00 66 1009.9
20200707082547 67 202 0.0 7.0 0.00 0.00 0.00 65 1010.2
20200707081546 67 202 0.0 1.0 0.00 0.00 0.00 64 1009.9
20200707080546 67 202 1.0 1.0 0.00 0.00 0.00 63 1009.9
20200707075544 67 202 0.0 0.0 0.00 0.00 0.00 61 1009.9
20200707074544 67 202 0.0 0.0 0.00 0.00 0.00 60 1009.9
20200707073543 67 202 0.0 0.0 0.00 0.00 0.00 60 1009.9
20200707072542 67 202 0.0 2.0 0.00 0.00 0.00 59 1009.9
20200707071541 67 202 0.0 1.0 0.00 0.00 0.00 59 1009.8
20200707070540 67 210 1.0 2.0 0.00 0.00 0.00 59 1009.8
20200707065539 67 202 0.0 2.0 0.00 0.00 0.00 58 1009.8
20200707064539 67 202 1.0 2.0 0.00 0.00 0.00 58 1009.8
20200707063538 67 202 1.0 7.0 0.00 0.00 0.00 57 1009.8
20200707062537 67 202 0.0 1.0 0.00 0.00 0.00 56 1009.8
20200707061536 67 202 0.0 0.0 0.00 0.00 0.00 55 1009.5
20200707060535 67 202 0.0 0.0 0.00 0.00 0.00 55 1009.5
20200707055535 67 202 0.0 0.0 0.00 0.00 0.00 54 1009.1
20200707054534 67 202 0.0 0.0 0.00 0.00 0.00 53 1009.1
20200707053533 67 202 0.0 2.0 0.00 0.00 0.00 52 1009.4
20200707052533 68 202 0.0 0.0 0.00 0.00 0.00 52 1009.4
20200707051531 68 225 0.0 0.0 0.00 0.00 0.00 50 1009.4
20200707050530 68 225 0.0 0.0 0.00 0.00 0.00 50 1009.1
20200707045530 68 225 0.0 0.0 0.00 0.00 0.00 49 1009.1
20200707044528 68 225 0.0 0.0 0.00 0.00 0.00 49 1009.1
20200707043527 69 225 0.0 0.0 0.00 0.00 0.00 47 1009.1
20200707042526 69 225 0.0 0.0 0.00 0.00 0.00 46 1009.1
20200707041526 70 225 0.0 0.0 0.00 0.00 0.00 45 1008.7
20200707040524 71 225 0.0 0.0 0.00 0.00 0.00 44 1008.7
20200707035524 71 225 0.0 0.0 0.00 0.00 0.00 44 1008.7
20200707034523 72 247 0.0 2.0 0.00 0.00 0.00 44 1008.7
20200707033522 73 247 0.0 0.0 0.00 0.00 0.00 43 1008.4
20200707032521 73 225 1.0 1.0 0.00 0.00 0.00 42 1008.4
20200707031521 74 225 0.0 1.0 0.00 0.00 0.00 41 1008.4
20200707030520 75 247 0.0 0.0 0.00 0.00 0.00 41 1008.4
20200707025519 76 247 0.0 4.0 0.00 0.00 0.00 41 1008.4
20200707024519 77 247 1.0 2.0 0.00 0.00 0.00 41 1008.4
20200707023518 78 247 1.0 5.0 0.00 0.00 0.00 40 1008.4
20200707022517 79 247 0.0 2.0 0.00 0.00 0.00 40 1008.4
20200707021516 80 247 2.0 3.0 0.00 0.00 0.00 39 1008.4
20200707020516 82 235 1.0 3.0 0.00 0.00 0.00 39 1008.4
20200707015515 83 247 2.0 3.0 0.00 0.00 0.00 38 1008.4
20200707014514 85 246 2.0 3.0 0.00 0.00 0.00 37 1008.4
20200707013514 86 251 2.0 3.0 0.00 0.00 0.00 36 1008.5
20200707012512 87 250 2.0 3.0 0.00 0.00 0.00 36 1008.5
20200707011511 88 248 2.0 3.0 0.00 0.00 0.00 36 1008.1
20200707010511 90 244 2.0 4.0 0.00 0.00 0.00 35 1008.1
20200707005510 91 227 2.0 3.0 0.00 0.00 0.00 34 1008.2
20200707004509 93 253 2.0 4.0 0.00 0.00 0.00 33 1008.2
20200707003508 93 221 2.0 5.0 0.00 0.00 0.00 33 1008.5
20200707002507 93 220 3.0 4.0 0.00 0.00 0.00 33 1008.5
20200707001507 94 227 2.0 5.0 0.00 0.00 0.00 33 1008.2
20200707000506 94 270 0.0 4.0 0.00 0.00 0.00 33 1008.5
20200706235505 94 213 2.0 6.0 0.00 0.00 0.00 34 1008.5
20200706234504 95 236 2.0 3.0 0.00 0.00 0.00 33 1008.5
20200706233503 95 225 1.0 3.0 0.00 0.00 0.00 32 1008.5
20200706232502 95 214 2.0 4.0 0.00 0.00 0.00 32 1008.5
20200706231502 96 270 1.0 4.0 0.00 0.00 0.00 32 1008.9
20200706230501 95 209 2.0 5.0 0.00 0.00 0.00 33 1008.9
20200706225500 96 199 2.0 4.0 0.00 0.00 0.00 33 1008.9
20200706224500 96 214 3.0 5.0 0.00 0.00 0.00 32 1009.2
20200706223459 96 226 2.0 4.0 0.00 0.00 0.00 32 1009.2
20200706222458 96 229 2.0 5.0 0.00 0.00 0.00 31 1009.2
20200706221457 96 251 2.0 5.0 0.00 0.00 0.00 29 1009.2
20200706220456 96 265 1.0 5.0 0.00 0.00 0.00 29 1009.2
20200706215454 96 246 2.0 5.0 0.00 0.00 0.00 28 1009.2
20200706214454 96 248 2.0 5.0 0.00 0.00 0.00 25 1009.5
20200706213453 96 242 2.0 6.0 0.00 0.00 0.00 27 1009.2
20200706212452 96 225 1.0 6.0 0.00 0.00 0.00 27 1009.5
20200706211451 95 218 2.0 5.0 0.00 0.00 0.00 27 1009.5
20200706210450 95 233 1.0 4.0 0.00 0.00 0.00 26 1009.9
20200706205450 95 201 2.0 5.0 0.00 0.00 0.00 27 1009.9
20200706204449 95 223 3.0 5.0 0.00 0.00 0.00 28 1009.5
20200706203448 94 217 2.0 5.0 0.00 0.00 0.00 29 1009.9
20200706202447 94 204 2.0 9.0 0.00 0.00 0.00 30 1009.9
20200706201446 93 202 2.0 5.0 0.00 0.00 0.00 31 1010.2
20200706200445 93 212 2.0 3.0 0.00 0.00 0.00 33 1010.2
20200706195444 92 218 2.0 5.0 0.00 0.00 0.00 33 1009.9
20200706194444 92 223 2.0 5.0 0.00 0.00 0.00 34 1010.2
20200706193443 91 261 1.0 3.0 0.00 0.00 0.00 34 1010.2
20200706192442 90 202 2.0 4.0 0.00 0.00 0.00 35 1010.2
20200706191442 89 267 1.0 2.0 0.00 0.00 0.00 35 1010.2
20200706190441 89 208 2.0 5.0 0.00 0.00 0.00 36 1010.5
20200706185440 88 202 2.0 5.0 0.00 0.00 0.00 37 1010.2
20200706184439 87 210 2.0 6.0 0.00 0.00 0.00 38 1010.2
20200706183438 86 221 2.0 3.0 0.00 0.00 0.00 39 1010.5
20200706182438 85 214 2.0 4.0 0.00 0.00 0.00 41 1010.2
20200706181437 85 258 2.0 3.0 0.00 0.00 0.00 41 1010.2
20200706180436 84 202 1.0 5.0 0.00 0.00 0.00 44 1010.2
20200706175435 84 225 2.0 3.0 0.00 0.00 0.00 46 1010.5
20200706174434 83 202 2.0 3.0 0.00 0.00 0.00 47 1010.5
20200706173434 82 222 2.0 4.0 0.00 0.00 0.00 48 1010.5
20200706172433 81 247 1.0 3.0 0.00 0.00 0.00 49 1010.5
20200706171433 80 225 2.0 3.0 0.00 0.00 0.00 50 1010.5
20200706170432 79 202 2.0 2.0 0.00 0.00 0.00 53 1010.1
20200706165431 78 202 0.0 2.0 0.00 0.00 0.00 54 1010.5
20200706164430 77 225 0.0 0.0 0.00 0.00 0.00 56 1010.1
20200706163429 76 22 0.0 0.0 0.00 0.00 0.00 56 1010.1
20200706162429 75 0 0.0 0.0 0.00 0.00 0.00 60 1010.1
20200706161428 74 225 0.0 0.0 0.00 0.00 0.00 63 1010.1
20200706160427 73 270 0.0 0.0 0.00 0.00 0.00 66 1010.1
20200706155427 73 270 0.0 0.0 0.00 0.00 0.00 69 1010.1
20200706154426 72 22 0.0 0.0 0.00 0.00 0.00 71 1010.1
20200706153425 71 202 0.0 0.0 0.00 0.00 0.00 73 1010.1
20200706152425 70 157 0.0 0.0 0.00 0.00 0.00 74 1010.1
20200706151424 69 202 0.0 0.0 0.00 0.00 0.00 75 1010.1
20200706150423 69 112 0.0 0.0 0.00 0.00 0.00 76 1009.8
20200706145423 68 225 0.0 0.0 0.00 0.00 0.00 77 1010.1
20200706144422 67 225 0.0 0.0 0.00 0.00 0.00 78 1010.1
20200706143422 67 202 0.0 0.0 0.00 0.00 0.00 77 1010.1
20200706142420 66 202 0.0 0.0 0.00 0.00 0.00 77 1009.8
20200706141420 66 112 0.0 0.0 0.00 0.00 0.00 77 1010.1
20200706140419 66 112 0.0 0.0 0.00 0.00 0.00 77 1009.8
20200706135418 66 112 0.0 0.0 0.00 0.00 0.00 77 1009.8
20200706134418 65 112 0.0 0.0 0.00 0.00 0.00 77 1010.1
20200706133417 65 112 0.0 0.0 0.00 0.00 0.00 77 1010.1
20200706132416 65 225 0.0 0.0 0.00 0.00 0.00 76 1009.8
20200706131415 64 225 0.0 0.0 0.00 0.00 0.00 76 1009.8
20200706130415 64 225 0.0 0.0 0.00 0.00 0.00 75 1009.5
20200706125414 65 225 0.0 0.0 0.00 0.00 0.00 75 1009.5
20200706124413 65 292 0.0 0.0 0.00 0.00 0.00 75 1009.2
20200706123412 65 315 0.0 0.0 0.00 0.00 0.00 74 1009.2
20200706122412 65 315 0.0 0.0 0.00 0.00 0.00 74 1008.8
20200706121411 65 315 0.0 0.0 0.00 0.00 0.00 74 1008.8
20200706120410 65 315 0.0 0.0 0.00 0.00 0.00 74 1009.2
20200706115410 65 315 0.0 0.0 0.00 0.00 0.00 74 1008.8
20200706114409 65 315 0.0 0.0 0.00 0.00 0.00 73 1008.5
20200706113408 65 315 0.0 0.0 0.00 0.00 0.00 73 1008.5
20200706112407 65 315 0.0 0.0 0.00 0.00 0.00 72 1008.5
20200706111406 65 315 0.0 0.0 0.00 0.00 0.00 72 1008.5
20200706110405 65 315 0.0 0.0 0.00 0.00 0.00 71 1008.5
20200706105405 65 315 0.0 0.0 0.00 0.00 0.00 71 1008.8
20200706104404 65 315 0.0 0.0 0.00 0.00 0.00 70 1008.8
20200706103403 64 315 0.0 0.0 0.00 0.00 0.00 69 1008.8
20200706102402 64 315 0.0 0.0 0.00 0.00 0.00 69 1008.8
20200706101402 64 315 0.0 0.0 0.00 0.00 0.00 69 1008.8
20200706100401 64 315 0.0 0.0 0.00 0.00 0.00 69 1008.8
20200706095400 64 315 0.0 0.0 0.00 0.00 0.00 68 1008.8
20200706094359 64 315 0.0 0.0 0.00 0.00 0.00 68 1009.2
20200706093358 65 315 0.0 0.0 0.00 0.00 0.00 68 1009.2
20200706092357 64 315 0.0 0.0 0.00 0.00 0.00 67 1009.2
20200706091357 65 315 0.0 0.0 0.00 0.00 0.00 67 1008.9
20200706090356 65 315 0.0 0.0 0.00 0.00 0.00 67 1008.9
20200706085355 65 315 0.0 0.0 0.00 0.00 0.00 66 1009.2